Location: Rounton
(54.4000°N, 1.3500°W)
Time: 13:22:48
(UTC+00:00)

Altair - Pass Details

Date: 03 December 2021
Orbit: 1501 x 1683 km, 47.2° (Epoch: 19 January)

Event Time Altitude Azimuth Distance (km) Brightness Sun altitude
Rises 17:46:15 0° 248° (WSW) 4,736 11.8 -16.6°
Reaches altitude 10° 17:49:25 10° 244° (WSW) 3,730 10.8 -17.0°
Maximum altitude 17:58:26 54° 171° (S) 1,787 7.8 -18.3°
Enters shadow 18:04:20 23° 104° (ESE) 2,789 8.3 -19.2°
Drops below altitude 10° 18:07:15 10° 97° (E) 3,655 - -19.6°
Sets 18:10:19 0° 94° (E) 4,635 - -20.0°
